Date_and_time,latitude,longitude,wind_speed,RelWindDirFrom,WindDirFrom,air_pressure,air_temperature,relative_humidity,Temp,platform_speed_wrt_ground,air_pressure_at_mean_sea_level,platform_orientation
2019-09-02 23:50,50.6304516666667,-96.9807833333333,16.3,20.2,105,986.14,16.0,55,17.36,0.0,1012.39,356.8
2019-09-03 00:00,50.6304516666667,-96.9807833333333,16.5,20.0,107,985.90,16.0,56,17.36,0.0,1012.14,360.0
2019-09-03 00:10,50.6304516666667,-96.9807816666667,16.1,19.4,113,985.83,16.0,56,17.37,0.0,1012.06,360.0
2019-09-03 00:20,50.6304516666667,-96.9807833333333,18.3,21.7,108,985.61,16.0,56,17.38,0.0,1011.84,360.0
2019-09-03 00:30,50.6304516666667,-96.9807833333333,17.2,20.8,111,985.58,15.9,56,17.38,0.0,1011.81,360.0
2019-09-03 00:40,50.6304566666667,-96.9807866666667,17.8,21.2,105,985.60,15.8,56,17.36,0.0,1011.83,360.0
2019-09-03 00:50,50.63046,-96.9807883333333,18.8,22.8,109,985.53,15.7,56,17.34,0.0,1011.76,360.0
2019-09-03 01:00,50.630455,-96.9807766666667,18.4,21.8,114,985.40,15.7,56,17.33,0.0,1011.64,36.6
2019-09-03 01:10,50.630455,-96.9807766666667,18.0,21.9,111,985.42,15.6,58,17.32,0.0,1011.67,36.6
2019-09-03 01:20,50.630455,-96.98078,17.6,20.9,111,985.43,15.5,57,17.31,0.0,1011.69,36.6
2019-09-03 01:30,50.630455,-96.98078,17.6,22.4,106,985.31,15.4,58,17.29,0.0,1011.57,36.6
2019-09-03 01:40,50.6304533333333,-96.9807783333333,16.8,20.3,107,985.24,15.4,59,17.28,0.0,1011.50,36.6
2019-09-03 01:50,50.6304533333333,-96.9807783333333,16.8,21.2,111,985.32,15.3,57,17.27,0.0,1011.59,36.6
2019-09-03 02:00,50.6304533333333,-96.9807783333333,17.2,22.0,111,985.18,15.2,57,17.27,0.0,1011.45,90.0
2019-09-03 02:10,50.6304516666667,-96.9807766666667,17.4,20.8,111,985.07,15.2,58,17.26,0.0,1011.34,90.0
2019-09-03 02:20,50.6304533333333,-96.980775,16.3,20.4,108,985.06,15.1,59,17.25,0.0,1011.33,90.0
2019-09-03 02:30,50.630465,-96.98078,15.9,19.5,103,985.03,15.0,59,17.24,0.0,1011.31,90.0
2019-09-03 02:40,50.630465,-96.980775,13.8,18.4,104,985.26,15.0,59,17.23,0.0,1011.55,90.0
2019-09-03 02:50,50.630465,-96.9807783333333,13.0,17.6,100,985.29,14.9,59,17.23,0.0,1011.59,90.0
2019-09-03 03:00,50.6304633333333,-96.9807783333333,10.4,14.8,91,985.38,14.9,58,17.23,0.0,1011.69,360.0
2019-09-03 03:10,50.6304633333333,-96.9807766666667,12.0,15.7,81,984.98,14.8,59,17.23,0.0,1011.29,360.0
2019-09-03 03:20,50.6304616666667,-96.9807766666667,14.8,19.2,79,984.38,14.6,62,17.23,0.0,1010.68,360.0
2019-09-03 03:30,50.63046,-96.9807766666667,13.5,18.6,79,984.66,14.3,63,17.22,0.0,1010.98,360.0
2019-09-03 03:40,50.63046,-96.9807783333333,15.0,18.4,76,984.48,14.3,63,17.22,0.0,1010.80,360.0
2019-09-03 03:50,50.63046,-96.9807766666667,15.3,19.3,76,984.24,14.0,66,17.22,0.0,1010.58,360.0
2019-09-03 04:00,50.63046,-96.9807766666667,14.4,20.2,82,984.35,13.7,69,17.21,0.0,1010.70,360.0
2019-09-03 04:10,50.63046,-96.9807783333333,14.4,19.0,90,984.13,13.4,73,17.20,0.0,1010.50,360.0
2019-09-03 04:20,50.63046,-96.9807783333333,17.2,24.6,91,983.43,13.2,77,17.20,0.0,1009.79,360.0
2019-09-03 04:30,50.6304616666667,-96.9807783333333,18.9,22.4,92,983.26,12.8,81,17.19,0.0,1009.64,360.0
2019-09-03 04:40,50.6304616666667,-96.98078,17.3,21.3,93,983.56,12.7,84,17.17,0.0,1009.95,360.0
2019-09-03 04:50,50.6304616666667,-96.98078,18.5,22.8,93,983.31,12.5,89,17.16,0.0,1009.71,360.0
2019-09-03 05:00,50.6304616666667,-96.98078,17.8,21.3,93,983.12,12.4,91,17.15,0.0,1009.53,360.0
2019-09-03 05:10,50.6304616666667,-96.98078,21.5,27.1,94,982.19,12.3,98,17.13,0.0,1008.58,360.0
2019-09-03 05:20,50.6304616666667,-96.9807816666667,23.5,28.4,93,981.46,12.2,99,17.11,0.0,1007.85,360.0
2019-09-03 05:30,50.6304616666667,-96.9807816666667,21.9,27.1,92,981.26,12.3,99,17.08,0.0,1007.64,360.0
2019-09-03 05:40,50.630455,-96.9807766666667,22.2,27.2,94,981.36,12.3,99,17.06,0.0,1007.76,360.0
2019-09-03 05:50,50.630455,-96.9807833333333,20.9,25.9,92,981.24,12.4,99,17.04,0.0,1007.64,360.0
2019-09-03 06:00,50.630455,-96.9807883333333,20.3,25.0,94,981.08,12.5,99,17.03,0.0,1007.49,360.0
2019-09-03 06:10,50.6304516666667,-96.980785,20.7,25.1,93,980.82,12.5,99,17.02,0.0,1007.23,360.0
2019-09-03 06:20,50.6304133333333,-96.9807616666667,20.5,24.7,95,980.70,12.6,99,17.02,0.0,1007.12,360.0
2019-09-03 06:30,50.6304633333333,-96.980785,20.3,24.1,97,980.56,12.6,99,17.00,0.0,1006.98,360.0
2019-09-03 06:40,50.6304633333333,-96.9807766666667,19.6,24.4,96,980.46,12.6,99,16.97,0.0,1006.88,360.0
2019-09-03 06:50,50.6304583333333,-96.9807833333333,19.4,23.4,97,980.31,12.6,99,16.96,0.0,1006.74,360.0
2019-09-03 07:00,50.6304533333333,-96.9807833333333,18.2,22.7,93,980.23,12.4,99,16.95,0.0,1006.67,234.7
2019-09-03 07:10,50.6304533333333,-96.9807833333333,16.5,21.0,92,980.19,12.1,100,16.95,0.0,1006.64,234.7
2019-09-03 07:20,50.630455,-96.9807833333333,15.8,19.9,90,980.11,12.0,100,16.95,0.0,1006.56,234.7
2019-09-03 07:30,50.630455,-96.9807833333333,15.7,20.4,87,979.96,11.8,100,16.93,0.0,1006.42,234.7
2019-09-03 07:40,50.6304566666667,-96.9807816666667,14.9,18.7,86,979.79,11.7,100,16.92,0.0,1006.24,234.7
2019-09-03 07:50,50.6304566666667,-96.9807816666667,15.0,20.2,82,979.58,11.6,100,16.91,0.0,1006.03,234.7
2019-09-03 08:00,50.6304516666667,-96.980785,15.0,18.3,78,979.48,11.7,100,16.90,0.0,1005.92,360.0
2019-09-03 08:10,50.630455,-96.9807833333333,14.6,17.9,76,979.42,11.7,100,16.89,0.0,1005.85,360.0
2019-09-03 08:20,50.630455,-96.9807833333333,13.4,16.3,78,979.40,11.6,100,16.89,0.0,1005.84,360.0
2019-09-03 08:30,50.630455,-96.980785,12.8,16.1,71,979.42,11.6,100,16.88,0.0,1005.85,360.0
2019-09-03 08:40,50.6304566666667,-96.9807833333333,13.2,16.0,71,979.32,11.6,100,16.87,0.0,1005.76,360.0
2019-09-03 08:50,50.6304583333333,-96.9807816666667,13.3,16.0,65,979.24,11.6,100,16.87,0.0,1005.68,360.0
2019-09-03 09:00,50.6304566666667,-96.9807816666667,14.8,16.8,61,979.23,11.5,100,16.87,0.0,1005.69,90.0
2019-09-03 09:10,50.6304566666667,-96.98078,14.9,17.1,54,979.35,11.5,100,16.87,0.0,1005.83,90.0
2019-09-03 09:20,50.6304566666667,-96.9807783333333,15.3,17.9,55,979.43,11.6,100,16.88,0.0,1005.90,90.0
2019-09-03 09:30,50.6304566666667,-96.9807783333333,15.5,18.8,54,979.45,11.6,100,16.89,0.0,1005.93,90.0
2019-09-03 09:40,50.6304566666667,-96.9807783333333,16.7,19.8,48,979.40,11.6,100,16.89,0.0,1005.89,90.0
2019-09-03 09:50,50.6304583333333,-96.9807783333333,17.8,20.4,47,979.29,11.6,100,16.88,0.0,1005.77,90.0
2019-09-03 10:00,50.6304583333333,-96.9807783333333,17.6,20.6,50,979.37,11.7,100,16.86,0.0,1005.85,360.0
2019-09-03 10:10,50.6304583333333,-96.98078,17.5,20.5,50,979.47,11.9,100,16.85,0.0,1005.95,360.0
2019-09-03 10:20,50.6304583333333,-96.98078,18.1,21.7,52,979.46,12.0,100,16.81,0.0,1005.93,360.0
2019-09-03 10:30,50.6304583333333,-96.9807783333333,18.6,21.6,52,979.32,12.0,100,16.77,0.0,1005.79,360.0
2019-09-03 10:40,50.6304583333333,-96.9807783333333,17.7,20.9,52,979.33,11.9,100,16.76,0.0,1005.80,360.0
2019-09-03 10:50,50.6304583333333,-96.9807783333333,17.3,20.1,54,979.42,11.9,99,16.74,0.0,1005.89,360.0
2019-09-03 11:00,50.6304583333333,-96.9807783333333,17.5,20.0,52,979.59,11.8,99,16.72,0.0,1006.08,38.0
2019-09-03 11:10,50.6304566666667,-96.9807783333333,17.1,20.8,50,979.79,11.7,99,16.72,0.0,1006.28,38.0
2019-09-03 11:20,50.6304566666667,-96.9807783333333,16.4,20.3,53,979.88,11.8,99,16.69,0.0,1006.37,38.0
2019-09-03 11:30,50.6304566666667,-96.9807783333333,14.6,17.7,51,980.15,11.9,99,16.68,0.0,1006.64,38.0
2019-09-03 11:40,50.6304566666667,-96.98078,13.3,16.0,53,980.34,12.0,97,16.67,0.0,1006.83,38.0
2019-09-03 11:50,50.6304566666667,-96.98078,13.5,17.8,53,980.41,12.0,96,16.66,0.0,1006.90,38.0
2019-09-03 12:00,50.6304566666667,-96.98078,13.8,16.8,39,980.52,12.1,97,16.65,0.0,1007.00,0.0
2019-09-03 12:10,50.6304566666667,-96.98078,14.6,17.1,30,980.72,12.0,99,16.65,0.0,1007.21,0.0
2019-09-03 12:20,50.6304566666667,-96.98078,15.6,19.0,33,980.77,11.9,99,16.64,0.0,1007.26,0.0
2019-09-03 12:30,50.6304566666667,-96.98078,16.9,19.7,24,980.85,11.8,99,16.64,0.0,1007.35,0.0
2019-09-03 12:40,50.6304566666667,-96.98078,15.5,18.9,27,980.99,11.8,99,16.62,0.0,1007.49,0.0
2019-09-03 12:50,50.63047,-96.980775,15.0,18.2,23,981.16,11.8,99,16.60,0.0,1007.67,0.0
2019-09-03 13:00,50.6304633333333,-96.9807983333333,16.6,19.2,21,981.19,11.6,99,16.59,0.0,1007.72,305.3
2019-09-03 13:10,50.6304566666667,-96.9807866666667,16.7,19.8,20,981.34,11.5,100,16.61,0.0,1007.87,305.3
2019-09-03 13:20,50.6304516666667,-96.98078,17.1,20.6,12,981.75,11.4,100,16.62,0.0,1008.30,305.3
2019-09-03 13:30,50.6304533333333,-96.9807883333333,17.4,19.8,16,981.85,11.5,100,16.60,0.0,1008.39,305.3
2019-09-03 13:40,50.6304633333333,-96.9807966666667,17.6,20.6,15,981.82,11.4,100,16.58,0.0,1008.36,305.3
2019-09-03 13:50,50.6304516666667,-96.98079,18.1,21.8,10,982.01,11.4,99,16.57,0.0,1008.55,305.3
2019-09-03 14:00,50.6304533333333,-96.9807866666667,17.8,21.3,17,982.09,11.7,98,16.55,0.0,1008.62,192.6
2019-09-03 14:10,50.6304516666667,-96.980785,17.7,20.8,9,982.33,11.8,94,16.54,0.0,1008.87,192.6
2019-09-03 14:20,50.6304516666667,-96.9807833333333,14.8,20.4,5,982.53,11.8,94,16.53,0.0,1009.08,192.6
2019-09-03 14:30,50.6304516666667,-96.9807833333333,9.7,20.0,348,982.82,11.2,99,16.54,0.0,1009.41,192.6
2019-09-03 14:40,50.6304516666667,-96.9807833333333,18.3,22.1,7,982.72,11.9,91,16.54,0.0,1009.28,192.6
2019-09-03 14:50,50.63045,-96.9807833333333,12.4,21.9,353,983.22,11.8,93,16.54,0.0,1009.79,192.6
2019-09-03 15:00,50.6304583333333,-96.9807733333333,9.0,13.6,332,983.50,11.2,96,16.54,0.0,1010.12,54.7
2019-09-03 15:10,50.6304516666667,-96.9807716666667,12.3,19.5,347,983.53,11.3,94,16.55,0.0,1010.14,54.7
2019-09-03 15:20,50.63045,-96.9807766666667,14.6,20.5,353,983.66,11.8,92,16.54,0.0,1010.26,54.7
2019-09-03 15:30,50.63045,-96.9807766666667,14.5,20.0,350,983.86,11.8,90,16.53,0.0,1010.47,54.7
2019-09-03 15:40,50.63045,-96.9807616666667,9.4,15.3,334,984.25,11.6,91,16.53,0.0,1010.88,54.7
2019-09-03 15:50,50.6304583333333,-96.9807716666667,9.6,13.6,325,984.37,11.2,94,16.52,0.0,1011.01,54.7
2019-09-03 16:00,50.63046,-96.9807766666667,9.8,15.7,326,984.43,11.2,93,16.50,0.0,1011.06,107.7
2019-09-03 16:10,50.630445,-96.9807966666667,10.9,15.7,345,984.34,11.6,91,16.49,0.0,1010.94,107.7
2019-09-03 16:20,50.6304516666667,-96.9807916666667,12.8,19.5,348,984.39,12.1,87,16.49,0.0,1011.01,107.7
2019-09-03 16:30,50.63045,-96.9807866666667,12.3,17.4,343,984.71,12.4,84,16.49,0.0,1011.29,107.7
2019-09-03 16:40,50.63045,-96.9807866666667,12.1,18.0,346,984.82,12.3,83,16.49,0.0,1011.41,107.7
2019-09-03 16:50,50.6304266666667,-96.980785,12.6,17.8,352,984.89,12.5,82,16.49,0.0,1011.50,107.7
2019-09-03 17:00,50.6304383333333,-96.9807883333333,13.8,17.0,359,984.99,12.7,81,16.49,0.0,1011.59,142.0
2019-09-03 17:10,50.6304533333333,-96.9807916666667,12.5,16.6,356,985.21,12.8,80,16.50,0.0,1011.78,142.0
2019-09-03 17:20,50.6304516666667,-96.98079,10.8,17.4,348,985.26,13.2,74,16.52,0.0,1011.82,142.0
2019-09-03 17:30,50.6304533333333,-96.9807866666667,11.9,15.9,352,985.36,13.3,74,16.54,0.0,1011.93,142.0
2019-09-03 17:40,50.63044,-96.98077,10.7,16.1,344,985.46,13.4,71,16.55,0.0,1012.04,142.0
2019-09-03 17:50,50.630445,-96.9807883333333,13.1,19.0,346,985.60,13.5,68,16.56,0.0,1012.18,142.0
2019-09-03 18:00,50.630445,-96.9807916666667,16.2,21.2,4,985.78,13.5,73,16.55,0.0,1012.35,211.1
2019-09-03 18:10,50.630435,-96.980815,15.3,19.2,359,986.06,13.2,76,16.56,0.0,1012.62,211.1
2019-09-03 18:20,50.6304383333333,-96.9807933333333,14.5,20.0,354,986.17,13.2,74,16.57,0.0,1012.73,211.1
2019-09-03 18:30,50.6304233333333,-96.9808,11.4,17.2,342,986.31,13.5,66,16.57,0.0,1012.86,211.1
2019-09-03 18:40,50.6304433333333,-96.98078,11.6,18.0,328,986.46,13.2,65,16.57,0.0,1013.02,211.1
2019-09-03 18:50,50.630445,-96.98077,10.6,15.6,333,986.71,13.4,64,16.57,0.0,1013.26,211.1
2019-09-03 19:00,50.6304466666667,-96.9807766666667,10.2,15.4,343,986.78,13.4,65,16.57,0.0,1013.32,360.0
2019-09-03 19:10,50.6304466666667,-96.9807783333333,9.5,14.9,337,986.92,13.3,64,16.55,0.0,1013.45,360.0
2019-09-03 19:20,50.6304483333333,-96.9807783333333,10.3,16.0,326,987.04,13.3,62,16.54,0.0,1013.57,360.0
2019-09-03 19:30,50.6304483333333,-96.9807783333333,10.0,15.0,334,987.20,13.3,65,16.54,0.0,1013.73,360.0
2019-09-03 19:40,50.63045,-96.98078,8.4,13.4,328,987.46,13.2,65,16.52,0.0,1014.00,360.0
2019-09-03 19:50,50.63045,-96.98078,8.4,12.9,342,987.51,13.5,65,16.52,0.0,1014.04,360.0
2019-09-03 20:00,50.63045,-96.9807783333333,8.7,13.4,333,987.56,13.5,64,16.54,0.0,1014.10,14.5
2019-09-03 20:10,50.6304516666667,-96.9807716666667,9.1,13.1,344,987.62,13.7,64,16.55,0.0,1014.16,14.5
2019-09-03 20:20,50.6304516666667,-96.9807816666667,9.0,14.5,350,987.78,13.7,65,16.57,0.0,1014.30,14.5
2019-09-03 20:30,50.630455,-96.9807816666667,9.4,12.7,350,987.92,13.8,63,16.56,0.0,1014.45,14.5
2019-09-03 20:40,50.6304533333333,-96.9807783333333,8.8,12.1,350,988.01,13.9,62,16.55,0.0,1014.53,14.5
2019-09-03 20:50,50.6304533333333,-96.9807783333333,10.3,13.7,357,988.07,14.1,62,16.55,0.0,1014.59,14.5
2019-09-03 21:00,50.6304516666667,-96.9807766666667,11.0,14.7,359,988.04,14.1,65,16.55,0.0,1014.56,42.8
2019-09-03 21:10,50.6304516666667,-96.9807783333333,10.9,14.4,357,988.08,14.4,62,16.54,0.0,1014.59,42.8
2019-09-03 21:20,50.63046,-96.980785,12.0,15.3,4,988.20,14.4,64,16.54,0.0,1014.72,42.8
2019-09-03 21:30,50.6304566666667,-96.98078,12.5,15.5,7,988.31,14.4,63,16.55,0.0,1014.83,42.8
2019-09-03 21:40,50.6304533333333,-96.9807966666667,13.5,16.3,1,988.37,14.3,63,16.55,0.0,1014.88,42.8
2019-09-03 21:50,50.630445,-96.9807783333333,11.6,15.0,0,988.54,14.5,61,16.56,0.0,1015.05,42.8
2019-09-03 22:00,50.6304466666667,-96.9807833333333,12.8,15.2,9,988.45,14.8,61,16.57,0.0,1014.94,270.0
2019-09-03 22:10,50.6304466666667,-96.9807816666667,12.7,15.2,10,988.46,14.6,61,16.56,0.0,1014.95,270.0
2019-09-03 22:20,50.6304466666667,-96.9807816666667,11.8,14.4,3,988.60,14.7,60,16.57,0.0,1015.08,270.0
2019-09-03 22:30,50.6304483333333,-96.9807833333333,11.3,13.6,9,988.71,14.9,59,16.57,0.0,1015.18,270.0
2019-09-03 22:40,50.63045,-96.980785,10.8,14.6,9,988.72,14.7,60,16.58,0.0,1015.19,270.0
2019-09-03 22:50,50.63045,-96.9807833333333,11.3,13.9,12,988.77,14.9,60,16.59,0.0,1015.23,270.0
2019-09-03 23:00,50.63045,-96.9807833333333,11.5,14.9,6,988.89,14.9,59,16.59,0.0,1015.34,0.0
2019-09-03 23:10,50.63045,-96.9807816666667,8.7,11.8,6,988.99,14.8,60,16.58,0.0,1015.45,0.0
2019-09-03 23:20,50.6304516666667,-96.9807816666667,8.9,11.9,4,989.09,15.0,60,16.58,0.0,1015.54,0.0
2019-09-03 23:30,50.630465,-96.9807766666667,9.9,12.9,7,989.21,15.2,60,16.57,0.0,1015.67,0.0
